Year,Month,Day,Hour,Minute,Value (Times are PST for windspeed in km/hr)
2009,06,25,00,00,3.20
2009,06,25,00,01,3.50
2009,06,25,00,02,3.80
2009,06,25,00,03,0.30
2009,06,25,00,04,2.30
2009,06,25,00,05,3.10
2009,06,25,00,06,2.60
2009,06,25,00,07,2.30
2009,06,25,00,08,2.80
2009,06,25,00,09,4.40
2009,06,25,00,10,3.60
2009,06,25,00,11,1.70
2009,06,25,00,12,1.00
2009,06,25,00,13,1.40
2009,06,25,00,14,0.10
2009,06,25,00,15,1.60
2009,06,25,00,16,1.40
2009,06,25,00,17,3.40
2009,06,25,00,18,3.50
2009,06,25,00,19,6.00
2009,06,25,00,20,5.30
2009,06,25,00,21,4.80
2009,06,25,00,22,2.50
2009,06,25,00,23,2.30
2009,06,25,00,24,3.50
2009,06,25,00,25,3.10
2009,06,25,00,26,3.90
2009,06,25,00,27,3.50
2009,06,25,00,28,0.60
2009,06,25,00,29,0.30
2009,06,25,00,30,0.80
2009,06,25,00,31,1.50
2009,06,25,00,32,0.00
2009,06,25,00,33,1.60
2009,06,25,00,34,1.60
2009,06,25,00,35,2.10
2009,06,25,00,36,6.40
2009,06,25,00,37,4.80
2009,06,25,00,38,4.30
2009,06,25,00,39,3.20
2009,06,25,00,40,3.10
2009,06,25,00,41,3.00
2009,06,25,00,42,2.70
2009,06,25,00,43,1.90
2009,06,25,00,44,3.20
2009,06,25,00,45,3.40
2009,06,25,00,46,1.20
2009,06,25,00,47,4.80
2009,06,25,00,48,2.70
2009,06,25,00,49,1.00
2009,06,25,00,50,1.40
2009,06,25,00,51,2.90
2009,06,25,00,52,0.60
2009,06,25,00,53,2.70
2009,06,25,00,54,0.60
2009,06,25,00,55,1.80
2009,06,25,00,56,4.30
2009,06,25,00,57,2.70
2009,06,25,00,58,1.50
2009,06,25,00,59,3.10
2009,06,25,01,00,3.50
2009,06,25,01,01,2.00
2009,06,25,01,02,1.00
2009,06,25,01,03,2.40
2009,06,25,01,04,1.80
2009,06,25,01,05,0.80
2009,06,25,01,06,2.00
2009,06,25,01,07,2.40
2009,06,25,01,08,3.40
2009,06,25,01,09,0.90
2009,06,25,01,10,1.00
2009,06,25,01,11,1.90
2009,06,25,01,12,1.50
2009,06,25,01,13,3.50
2009,06,25,01,14,2.10
2009,06,25,01,15,1.50
2009,06,25,01,16,5.10
2009,06,25,01,17,4.30
2009,06,25,01,18,1.70
2009,06,25,01,19,2.50
2009,06,25,01,20,3.50
2009,06,25,01,21,3.10
2009,06,25,01,22,2.30
2009,06,25,01,23,3.80
2009,06,25,01,24,2.80
2009,06,25,01,25,0.90
2009,06,25,01,26,3.00
2009,06,25,01,27,2.60
2009,06,25,01,28,5.60
2009,06,25,01,29,4.50
2009,06,25,01,30,5.60
2009,06,25,01,31,3.10
2009,06,25,01,32,3.10
2009,06,25,01,33,4.80
2009,06,25,01,34,1.40
2009,06,25,01,35,2.60
2009,06,25,01,36,4.10
2009,06,25,01,37,2.20
2009,06,25,01,38,1.60
2009,06,25,01,39,4.70
2009,06,25,01,40,3.60
2009,06,25,01,41,3.70
2009,06,25,01,42,2.50
2009,06,25,01,43,1.40
2009,06,25,01,44,3.00
2009,06,25,01,45,1.10
2009,06,25,01,46,0.10
2009,06,25,01,47,2.50
2009,06,25,01,48,0.60
2009,06,25,01,49,2.20
2009,06,25,01,50,3.70
2009,06,25,01,51,1.80
2009,06,25,01,52,5.00
2009,06,25,01,53,0.70
2009,06,25,01,54,2.30
2009,06,25,01,55,1.10
2009,06,25,01,56,1.10
2009,06,25,01,57,0.80
2009,06,25,01,58,1.00
2009,06,25,01,59,0.20
2009,06,25,02,00,1.00
2009,06,25,02,01,0.00
2009,06,25,02,02,0.00
2009,06,25,02,03,0.00
2009,06,25,02,04,0.00
2009,06,25,02,05,0.00
2009,06,25,02,06,0.00
2009,06,25,02,07,0.00
2009,06,25,02,08,0.00
2009,06,25,02,09,0.00
2009,06,25,02,10,0.00
2009,06,25,02,11,0.00
2009,06,25,02,12,0.00
2009,06,25,02,13,0.00
2009,06,25,02,14,0.00
2009,06,25,02,15,0.00
2009,06,25,02,16,0.00
2009,06,25,02,17,0.00
2009,06,25,02,18,0.00
2009,06,25,02,19,0.10
2009,06,25,02,20,0.70
2009,06,25,02,21,1.20
2009,06,25,02,22,0.00
2009,06,25,02,23,0.00
2009,06,25,02,24,2.20
2009,06,25,02,25,0.40
2009,06,25,02,26,0.30
2009,06,25,02,27,0.80
2009,06,25,02,28,0.20
2009,06,25,02,29,0.10
2009,06,25,02,30,0.00
2009,06,25,02,31,0.20
2009,06,25,02,32,2.30
2009,06,25,02,33,2.60
2009,06,25,02,34,3.00
2009,06,25,02,35,0.60
2009,06,25,02,36,1.00
2009,06,25,02,37,1.40
2009,06,25,02,38,0.10
2009,06,25,02,39,1.30
2009,06,25,02,40,2.40
2009,06,25,02,41,0.20
2009,06,25,02,42,3.00
2009,06,25,02,43,1.30
2009,06,25,02,44,1.60
2009,06,25,02,45,0.40
2009,06,25,02,46,0.60
2009,06,25,02,47,1.20
2009,06,25,02,48,3.80
2009,06,25,02,49,2.50
2009,06,25,02,50,1.40
2009,06,25,02,51,4.70
2009,06,25,02,52,0.70
2009,06,25,02,53,0.00
2009,06,25,02,54,0.00
2009,06,25,02,55,2.20
2009,06,25,02,56,1.20
2009,06,25,02,57,0.00
2009,06,25,02,58,2.30
2009,06,25,02,59,4.10
2009,06,25,03,00,1.90
2009,06,25,03,01,1.40
2009,06,25,03,02,0.20
2009,06,25,03,03,0.60
2009,06,25,03,04,0.00
2009,06,25,03,05,0.00
2009,06,25,03,06,0.00
2009,06,25,03,07,0.20
2009,06,25,03,08,0.50
2009,06,25,03,09,0.00
2009,06,25,03,10,0.20
2009,06,25,03,11,1.70
2009,06,25,03,12,2.90
2009,06,25,03,13,2.00
2009,06,25,03,14,0.40
2009,06,25,03,15,0.70
2009,06,25,03,16,0.20
2009,06,25,03,17,0.20
2009,06,25,03,18,0.00
2009,06,25,03,19,1.30
2009,06,25,03,20,0.70
2009,06,25,03,21,0.00
2009,06,25,03,22,0.00
2009,06,25,03,23,0.00
2009,06,25,03,24,0.60
2009,06,25,03,25,0.20
2009,06,25,03,26,0.20
2009,06,25,03,27,0.00
2009,06,25,03,28,0.00
2009,06,25,03,29,0.00
2009,06,25,03,30,0.00
2009,06,25,03,31,0.10
2009,06,25,03,32,0.00
2009,06,25,03,33,0.00
2009,06,25,03,34,0.00
2009,06,25,03,35,0.60
2009,06,25,03,36,0.40
2009,06,25,03,37,0.20
2009,06,25,03,38,0.00
2009,06,25,03,39,0.00
2009,06,25,03,40,0.00
2009,06,25,03,41,0.00
2009,06,25,03,42,0.00
2009,06,25,03,43,0.10
2009,06,25,03,44,0.00
2009,06,25,03,45,0.00
2009,06,25,03,46,0.00
2009,06,25,03,47,0.30
2009,06,25,03,48,0.00
2009,06,25,03,49,0.00
2009,06,25,03,50,1.20
2009,06,25,03,51,1.10
2009,06,25,03,52,1.90
2009,06,25,03,53,0.40
2009,06,25,03,54,1.80
2009,06,25,03,55,0.90
2009,06,25,03,56,0.30
2009,06,25,03,57,1.90
2009,06,25,03,58,3.10
2009,06,25,03,59,3.80
2009,06,25,04,00,3.70
2009,06,25,04,01,1.80
2009,06,25,04,02,3.50
2009,06,25,04,03,1.00
2009,06,25,04,04,5.80
2009,06,25,04,05,3.90
2009,06,25,04,06,2.60
2009,06,25,04,07,2.80
2009,06,25,04,08,2.10
2009,06,25,04,09,2.80
2009,06,25,04,10,2.50
2009,06,25,04,11,3.10
2009,06,25,04,12,3.20
2009,06,25,04,13,3.10
2009,06,25,04,14,2.10
2009,06,25,04,15,2.10
2009,06,25,04,16,1.90
2009,06,25,04,17,2.40
2009,06,25,04,18,3.50
2009,06,25,04,19,5.30
2009,06,25,04,20,3.30
2009,06,25,04,21,4.60
2009,06,25,04,22,3.40
2009,06,25,04,23,4.90
2009,06,25,04,24,1.90
2009,06,25,04,25,2.60
2009,06,25,04,26,3.50
2009,06,25,04,27,3.60
2009,06,25,04,28,3.30
2009,06,25,04,29,3.00
2009,06,25,04,30,4.90
2009,06,25,04,31,2.90
2009,06,25,04,32,3.10
2009,06,25,04,33,3.00
2009,06,25,04,34,6.50
2009,06,25,04,35,9.20
2009,06,25,04,36,4.70
2009,06,25,04,37,3.30
2009,06,25,04,38,6.70
2009,06,25,04,39,7.20
2009,06,25,04,40,4.50
2009,06,25,04,41,4.10
2009,06,25,04,42,5.40
2009,06,25,04,43,4.00
2009,06,25,04,44,6.00
2009,06,25,04,45,4.50
2009,06,25,04,46,4.80
2009,06,25,04,47,4.30
2009,06,25,04,48,5.60
2009,06,25,04,49,7.60
2009,06,25,04,50,3.20
2009,06,25,04,51,5.70
2009,06,25,04,52,1.10
2009,06,25,04,53,5.20
2009,06,25,04,54,7.50
2009,06,25,04,55,4.30
2009,06,25,04,56,0.70
2009,06,25,04,57,1.30
2009,06,25,04,58,3.30
2009,06,25,04,59,8.00
2009,06,25,05,00,4.50
2009,06,25,05,01,6.10
2009,06,25,05,02,8.40
2009,06,25,05,03,8.90
2009,06,25,05,04,6.00
2009,06,25,05,05,4.80
2009,06,25,05,06,5.90
2009,06,25,05,07,0.80
2009,06,25,05,08,5.20
2009,06,25,05,09,6.40
2009,06,25,05,10,7.70
2009,06,25,05,11,5.90
2009,06,25,05,12,6.00
2009,06,25,05,13,3.80
2009,06,25,05,14,3.40
2009,06,25,05,15,5.00
2009,06,25,05,16,3.70
2009,06,25,05,17,5.30
2009,06,25,05,18,3.70
2009,06,25,05,19,3.30
2009,06,25,05,20,4.20
2009,06,25,05,21,1.90
2009,06,25,05,22,7.40
2009,06,25,05,23,3.70
2009,06,25,05,24,8.90
2009,06,25,05,25,5.00
2009,06,25,05,26,8.10
2009,06,25,05,27,3.10
2009,06,25,05,28,9.10
2009,06,25,05,29,5.20
2009,06,25,05,30,3.50
2009,06,25,05,31,5.70
2009,06,25,05,32,2.30
2009,06,25,05,33,6.40
2009,06,25,05,34,6.30
2009,06,25,05,35,1.70
2009,06,25,05,36,10.40
2009,06,25,05,37,5.60
2009,06,25,05,38,1.50
2009,06,25,05,39,3.50
2009,06,25,05,40,9.10
2009,06,25,05,41,7.00
2009,06,25,05,42,7.60
2009,06,25,05,43,6.40
2009,06,25,05,44,6.10
2009,06,25,05,45,3.50
2009,06,25,05,46,11.20
2009,06,25,05,47,4.10
2009,06,25,05,48,1.40
2009,06,25,05,49,8.00
2009,06,25,05,50,5.70
2009,06,25,05,51,4.70
2009,06,25,05,52,4.10
2009,06,25,05,53,6.60
2009,06,25,05,54,4.90
2009,06,25,05,55,4.80
2009,06,25,05,56,2.00
2009,06,25,05,57,0.20
2009,06,25,05,58,2.20
2009,06,25,05,59,2.20
2009,06,25,06,00,1.50
2009,06,25,06,01,2.30
2009,06,25,06,02,2.40
2009,06,25,06,03,3.50
2009,06,25,06,04,1.40
2009,06,25,06,05,1.80
2009,06,25,06,06,5.00
2009,06,25,06,07,2.60
2009,06,25,06,08,0.90
2009,06,25,06,09,2.50
2009,06,25,06,10,5.40
2009,06,25,06,11,1.10
2009,06,25,06,12,0.00
2009,06,25,06,13,3.00
2009,06,25,06,14,9.00
2009,06,25,06,15,8.00
2009,06,25,06,16,3.50
2009,06,25,06,17,3.80
2009,06,25,06,18,3.90
2009,06,25,06,19,2.80
2009,06,25,06,20,1.70
2009,06,25,06,21,4.10
2009,06,25,06,22,1.60
2009,06,25,06,23,5.30
2009,06,25,06,24,4.50
2009,06,25,06,25,2.30
2009,06,25,06,26,3.10
2009,06,25,06,27,2.10
2009,06,25,06,28,2.30
2009,06,25,06,29,3.90
2009,06,25,06,30,3.60
2009,06,25,06,31,4.70
2009,06,25,06,32,4.70
2009,06,25,06,33,5.60
2009,06,25,06,34,1.40
2009,06,25,06,35,3.90
2009,06,25,06,36,2.50
2009,06,25,06,37,1.30
2009,06,25,06,38,1.80
2009,06,25,06,39,1.90
2009,06,25,06,40,3.80
2009,06,25,06,41,3.20
2009,06,25,06,42,4.30
2009,06,25,06,43,6.80
2009,06,25,06,44,4.10
2009,06,25,06,45,1.80
2009,06,25,06,46,0.70
2009,06,25,06,47,1.90
2009,06,25,06,48,0.20
2009,06,25,06,49,6.00
2009,06,25,06,50,5.00
2009,06,25,06,51,2.80
2009,06,25,06,52,2.60
2009,06,25,06,53,3.10
2009,06,25,06,54,0.80
2009,06,25,06,55,3.00
2009,06,25,06,56,0.30
2009,06,25,06,57,0.90
2009,06,25,06,58,3.60
2009,06,25,06,59,3.10
2009,06,25,07,00,3.30
2009,06,25,07,01,5.30
2009,06,25,07,02,5.10
2009,06,25,07,03,5.20
2009,06,25,07,04,2.90
2009,06,25,07,05,0.20
2009,06,25,07,06,0.80
2009,06,25,07,07,4.50
2009,06,25,07,08,7.40
2009,06,25,07,09,4.30
2009,06,25,07,10,5.70
2009,06,25,07,11,5.10
2009,06,25,07,12,1.80
2009,06,25,07,13,3.40
2009,06,25,07,14,7.10
2009,06,25,07,15,2.20
2009,06,25,07,16,3.60
2009,06,25,07,17,2.70
2009,06,25,07,18,0.70
2009,06,25,07,19,0.00
2009,06,25,07,20,0.20
2009,06,25,07,21,1.60
2009,06,25,07,22,0.60
2009,06,25,07,23,5.30
2009,06,25,07,24,3.20
2009,06,25,07,25,1.70
2009,06,25,07,26,3.10
2009,06,25,07,27,1.90
2009,06,25,07,28,1.60
2009,06,25,07,29,0.90
2009,06,25,07,30,1.10
2009,06,25,07,31,2.10
2009,06,25,07,32,1.40
2009,06,25,07,33,0.10
2009,06,25,07,34,0.10
2009,06,25,07,35,0.50
2009,06,25,07,36,1.60
2009,06,25,07,37,2.10
2009,06,25,07,38,0.20
2009,06,25,07,39,1.50
2009,06,25,07,40,1.20
2009,06,25,07,41,2.80
2009,06,25,07,42,4.30
2009,06,25,07,43,1.70
2009,06,25,07,44,2.10
2009,06,25,07,45,1.80
2009,06,25,07,46,1.00
2009,06,25,07,47,1.30
2009,06,25,07,48,0.70
2009,06,25,07,49,0.50
2009,06,25,07,50,2.10
2009,06,25,07,51,5.10
2009,06,25,07,52,1.60
2009,06,25,07,53,5.80
2009,06,25,07,54,3.10
2009,06,25,07,55,1.70
2009,06,25,07,56,3.10
2009,06,25,07,57,2.30
2009,06,25,07,58,3.90
2009,06,25,07,59,3.40
2009,06,25,08,00,5.60
2009,06,25,08,01,4.50
2009,06,25,08,02,7.20
2009,06,25,08,03,5.60
2009,06,25,08,04,0.70
2009,06,25,08,05,1.40
2009,06,25,08,06,2.60
2009,06,25,08,07,4.90
2009,06,25,08,08,1.60
2009,06,25,08,09,4.70
2009,06,25,08,10,3.80
2009,06,25,08,11,1.00
2009,06,25,08,12,1.80
2009,06,25,08,13,5.00
2009,06,25,08,14,4.80
2009,06,25,08,15,2.30
2009,06,25,08,16,0.40
2009,06,25,08,17,4.30
2009,06,25,08,18,3.90
2009,06,25,08,19,4.80
2009,06,25,08,20,9.30
2009,06,25,08,21,3.10
2009,06,25,08,22,4.80
2009,06,25,08,23,3.00
2009,06,25,08,24,8.00
2009,06,25,08,25,6.90
2009,06,25,08,26,4.50
2009,06,25,08,27,4.40
2009,06,25,08,28,2.20
2009,06,25,08,29,4.30
2009,06,25,08,30,6.30
2009,06,25,08,31,3.20
2009,06,25,08,32,7.40
2009,06,25,08,33,6.00
2009,06,25,08,34,2.10
2009,06,25,08,35,7.50
2009,06,25,08,36,3.90
2009,06,25,08,37,3.90
2009,06,25,08,38,4.60
2009,06,25,08,39,5.20
2009,06,25,08,40,4.50
2009,06,25,08,41,8.50
2009,06,25,08,42,2.80
2009,06,25,08,43,2.70
2009,06,25,08,44,2.70
2009,06,25,08,45,8.70
2009,06,25,08,46,3.60
2009,06,25,08,47,5.60
2009,06,25,08,48,7.00
2009,06,25,08,49,3.50
2009,06,25,08,50,4.60
2009,06,25,08,51,5.90
2009,06,25,08,52,9.30
2009,06,25,08,53,8.40
2009,06,25,08,54,1.70
2009,06,25,08,55,1.60
2009,06,25,08,56,4.10
2009,06,25,08,57,2.90
2009,06,25,08,58,5.10
2009,06,25,08,59,3.40
2009,06,25,09,00,2.10
2009,06,25,09,01,10.20
2009,06,25,09,02,6.30
2009,06,25,09,03,6.20
2009,06,25,09,04,1.00
2009,06,25,09,05,1.90
2009,06,25,09,06,4.50
2009,06,25,09,07,3.50
2009,06,25,09,08,6.60
2009,06,25,09,09,5.10
2009,06,25,09,10,5.10
2009,06,25,09,11,6.40
2009,06,25,09,12,4.10
2009,06,25,09,13,0.70
2009,06,25,09,14,5.10
2009,06,25,09,15,4.70
2009,06,25,09,16,7.70
2009,06,25,09,17,5.70
2009,06,25,09,18,3.30
2009,06,25,09,19,5.60
2009,06,25,09,20,8.00
2009,06,25,09,21,4.70
2009,06,25,09,22,4.20
2009,06,25,09,23,8.70
2009,06,25,09,24,9.40
2009,06,25,09,25,3.90
2009,06,25,09,26,3.90
2009,06,25,09,27,12.20
2009,06,25,09,28,11.60
2009,06,25,09,29,10.30
2009,06,25,09,30,9.60
2009,06,25,09,31,6.00
2009,06,25,09,32,7.30
2009,06,25,09,33,10.30
2009,06,25,09,34,10.20
2009,06,25,09,35,7.10
2009,06,25,09,36,8.70
2009,06,25,09,37,12.20
2009,06,25,09,38,6.70
2009,06,25,09,39,3.80
2009,06,25,09,40,10.10
2009,06,25,09,41,7.10
2009,06,25,09,42,6.50
2009,06,25,09,43,7.00
2009,06,25,09,44,7.70
2009,06,25,09,45,10.90
2009,06,25,09,46,10.50
2009,06,25,09,47,8.80
2009,06,25,09,48,7.20
2009,06,25,09,49,11.30
2009,06,25,09,50,9.80
2009,06,25,09,51,11.00
2009,06,25,09,52,12.20
2009,06,25,09,53,6.00
2009,06,25,09,54,9.10
2009,06,25,09,55,4.80
2009,06,25,09,56,14.90
2009,06,25,09,57,13.10
2009,06,25,09,58,7.90
2009,06,25,09,59,7.50
2009,06,25,10,00,8.80
2009,06,25,10,01,4.70
2009,06,25,10,02,6.60
2009,06,25,10,03,9.30
2009,06,25,10,04,9.80
2009,06,25,10,05,6.80
2009,06,25,10,06,6.90
2009,06,25,10,07,12.80
2009,06,25,10,08,10.30
2009,06,25,10,09,6.20
2009,06,25,10,10,7.70
2009,06,25,10,11,9.40
2009,06,25,10,12,1.90
2009,06,25,10,13,11.30
2009,06,25,10,14,10.80
2009,06,25,10,15,4.70
2009,06,25,10,16,9.90
2009,06,25,10,17,5.80
2009,06,25,10,18,11.30
2009,06,25,10,19,11.70
2009,06,25,10,20,13.10
2009,06,25,10,21,8.40
2009,06,25,10,22,5.30
2009,06,25,10,23,5.60
2009,06,25,10,24,10.20
2009,06,25,10,25,10.60
2009,06,25,10,26,8.90
2009,06,25,10,27,14.20
2009,06,25,10,28,6.80
2009,06,25,10,29,9.50
2009,06,25,10,30,11.90
2009,06,25,10,31,7.60
2009,06,25,10,32,11.30
2009,06,25,10,33,10.40
2009,06,25,10,34,10.20
2009,06,25,10,35,14.50
2009,06,25,10,36,4.70
2009,06,25,10,37,6.70
2009,06,25,10,38,7.20
2009,06,25,10,39,15.20
2009,06,25,10,40,10.00
2009,06,25,10,41,10.00
2009,06,25,10,42,6.00
2009,06,25,10,43,12.40
2009,06,25,10,44,10.10
2009,06,25,10,45,6.40
2009,06,25,10,46,7.80
2009,06,25,10,47,11.10
2009,06,25,10,48,11.70
2009,06,25,10,49,12.20
2009,06,25,10,50,13.40
2009,06,25,10,51,12.40
2009,06,25,10,52,5.40
2009,06,25,10,53,9.70
2009,06,25,10,54,14.30
2009,06,25,10,55,12.20
2009,06,25,10,56,14.90
2009,06,25,10,57,14.60
2009,06,25,10,58,9.50
2009,06,25,10,59,16.20
2009,06,25,11,00,14.70
2009,06,25,11,01,12.20
2009,06,25,11,02,17.10
2009,06,25,11,03,6.90
2009,06,25,11,04,11.50
2009,06,25,11,05,8.00
2009,06,25,11,06,15.10
2009,06,25,11,07,8.20
2009,06,25,11,08,10.80
2009,06,25,11,09,10.70
2009,06,25,11,10,11.10
2009,06,25,11,11,5.40
2009,06,25,11,12,5.10
2009,06,25,11,13,3.50
2009,06,25,11,14,17.40
2009,06,25,11,15,12.30
2009,06,25,11,16,8.70
2009,06,25,11,17,9.80
2009,06,25,11,18,12.90
2009,06,25,11,19,9.20
2009,06,25,11,20,8.60
2009,06,25,11,21,12.10
2009,06,25,11,22,13.40
2009,06,25,11,23,16.40
2009,06,25,11,24,6.90
2009,06,25,11,25,14.40
2009,06,25,11,26,9.40
2009,06,25,11,27,12.00
2009,06,25,11,28,11.30
2009,06,25,11,29,5.40
2009,06,25,11,30,9.90
2009,06,25,11,31,11.10
2009,06,25,11,32,11.40
2009,06,25,11,33,13.00
2009,06,25,11,34,5.50
2009,06,25,11,35,7.70
2009,06,25,11,36,7.30
2009,06,25,11,37,9.40
2009,06,25,11,38,7.20
2009,06,25,11,39,8.60
2009,06,25,11,40,10.60
2009,06,25,11,41,2.30
2009,06,25,11,42,18.30
2009,06,25,11,43,15.90
2009,06,25,11,44,13.60
2009,06,25,11,45,17.90
2009,06,25,11,46,11.80
2009,06,25,11,47,9.80
2009,06,25,11,48,15.90
2009,06,25,11,49,9.40
2009,06,25,11,50,8.50
2009,06,25,11,51,12.60
2009,06,25,11,52,12.80
2009,06,25,11,53,12.00
2009,06,25,11,54,16.20
2009,06,25,11,55,9.60
2009,06,25,11,56,11.90
2009,06,25,11,57,13.80
2009,06,25,11,58,16.10
2009,06,25,11,59,5.10
2009,06,25,12,00,10.20
2009,06,25,12,01,18.20
2009,06,25,12,02,16.40
2009,06,25,12,03,9.80
2009,06,25,12,04,9.80
2009,06,25,12,05,9.60
2009,06,25,12,06,14.30
2009,06,25,12,07,10.00
2009,06,25,12,08,14.60
2009,06,25,12,09,14.70
2009,06,25,12,10,11.60
2009,06,25,12,11,14.00
2009,06,25,12,12,12.50
2009,06,25,12,13,9.60
2009,06,25,12,14,8.70
2009,06,25,12,15,14.60
2009,06,25,12,16,17.00
2009,06,25,12,17,12.50
2009,06,25,12,18,14.00
2009,06,25,12,19,13.70
2009,06,25,12,20,10.50
2009,06,25,12,21,11.40
2009,06,25,12,22,23.70
2009,06,25,12,23,12.20
2009,06,25,12,24,12.70
2009,06,25,12,25,14.40
2009,06,25,12,26,11.50
2009,06,25,12,27,9.70
2009,06,25,12,28,11.30
2009,06,25,12,29,15.40
2009,06,25,12,30,10.70
2009,06,25,12,31,9.60
2009,06,25,12,32,16.20
2009,06,25,12,33,15.50
2009,06,25,12,34,6.40
2009,06,25,12,35,7.80
2009,06,25,12,36,18.80
2009,06,25,12,37,13.80
2009,06,25,12,38,14.50
2009,06,25,12,39,7.50
2009,06,25,12,40,15.10
2009,06,25,12,41,6.00
2009,06,25,12,42,14.60
2009,06,25,12,43,15.70
2009,06,25,12,44,6.60
2009,06,25,12,45,13.70
2009,06,25,12,46,13.00
2009,06,25,12,47,12.70
2009,06,25,12,48,12.90
2009,06,25,12,49,10.50
2009,06,25,12,50,16.20
2009,06,25,12,51,17.50
2009,06,25,12,52,13.70
2009,06,25,12,53,12.40
2009,06,25,12,54,14.10
2009,06,25,12,55,12.90
2009,06,25,12,56,14.40
2009,06,25,12,57,14.40
2009,06,25,12,58,19.90
2009,06,25,12,59,16.70
2009,06,25,13,00,13.40
2009,06,25,13,01,10.10
2009,06,25,13,02,13.20
2009,06,25,13,03,4.70
2009,06,25,13,04,12.70
2009,06,25,13,05,7.90
2009,06,25,13,06,15.00
2009,06,25,13,07,8.90
2009,06,25,13,08,16.20
2009,06,25,13,09,9.70
2009,06,25,13,10,6.30
2009,06,25,13,11,10.90
2009,06,25,13,12,13.70
2009,06,25,13,13,10.90
2009,06,25,13,14,10.20
2009,06,25,13,15,13.50
2009,06,25,13,16,14.60
2009,06,25,13,17,14.60
2009,06,25,13,18,14.00
2009,06,25,13,19,16.70
2009,06,25,13,20,12.00
2009,06,25,13,21,13.80
2009,06,25,13,22,15.10
2009,06,25,13,23,13.80
2009,06,25,13,24,13.00
2009,06,25,13,25,14.00
2009,06,25,13,26,13.50
2009,06,25,13,27,17.50
2009,06,25,13,28,14.50
2009,06,25,13,29,14.30
2009,06,25,13,30,16.90
2009,06,25,13,31,10.40
2009,06,25,13,32,14.60
2009,06,25,13,33,10.70
2009,06,25,13,34,11.50
2009,06,25,13,35,12.80
2009,06,25,13,36,10.00
2009,06,25,13,37,12.30
2009,06,25,13,38,9.50
2009,06,25,13,39,5.60
2009,06,25,13,40,5.20
2009,06,25,13,41,4.90
2009,06,25,13,42,7.80
2009,06,25,13,43,9.40
2009,06,25,13,44,5.10
2009,06,25,13,45,5.90
2009,06,25,13,46,9.10
2009,06,25,13,47,8.40
2009,06,25,13,48,12.70
2009,06,25,13,49,10.30
2009,06,25,13,50,7.60
2009,06,25,13,51,5.60
2009,06,25,13,52,5.10
2009,06,25,13,53,9.30
2009,06,25,13,54,5.80
2009,06,25,13,55,8.00
2009,06,25,13,56,3.30
2009,06,25,13,57,10.30
2009,06,25,13,58,16.30
2009,06,25,13,59,8.90
2009,06,25,14,00,9.80
2009,06,25,14,01,8.80
2009,06,25,14,02,9.70
2009,06,25,14,03,5.90
2009,06,25,14,04,5.60
2009,06,25,14,05,8.10
2009,06,25,14,06,12.30
2009,06,25,14,07,13.30
2009,06,25,14,08,12.90
2009,06,25,14,09,6.40
2009,06,25,14,10,10.00
2009,06,25,14,11,11.30
2009,06,25,14,12,14.10
2009,06,25,14,13,7.70
2009,06,25,14,14,3.50
2009,06,25,14,15,4.30
2009,06,25,14,16,2.40
2009,06,25,14,17,2.90
2009,06,25,14,18,7.40
2009,06,25,14,19,8.10
2009,06,25,14,20,12.00
2009,06,25,14,21,5.50
2009,06,25,14,22,12.70
2009,06,25,14,23,8.80
2009,06,25,14,24,6.30
2009,06,25,14,25,7.10
2009,06,25,14,26,8.20
2009,06,25,14,27,5.20
2009,06,25,14,28,9.30
2009,06,25,14,29,13.20
2009,06,25,14,30,10.60
2009,06,25,14,31,14.80
2009,06,25,14,32,5.20
2009,06,25,14,33,4.90
2009,06,25,14,34,15.30
2009,06,25,14,35,15.70
2009,06,25,14,36,9.40
2009,06,25,14,37,10.50
2009,06,25,14,38,12.70
2009,06,25,14,39,6.40
2009,06,25,14,40,6.90
2009,06,25,14,41,17.50
2009,06,25,14,42,10.20
2009,06,25,14,43,2.70
2009,06,25,14,44,6.00
2009,06,25,14,45,8.10
2009,06,25,14,46,5.90
2009,06,25,14,47,10.80
2009,06,25,14,48,5.80
2009,06,25,14,49,8.00
2009,06,25,14,50,10.90
2009,06,25,14,51,11.20
2009,06,25,14,52,8.90
2009,06,25,14,53,9.10
2009,06,25,14,54,16.60
2009,06,25,14,55,8.90
2009,06,25,14,56,16.10
2009,06,25,14,57,10.20
2009,06,25,14,58,5.60
2009,06,25,14,59,8.40
2009,06,25,15,00,11.70
2009,06,25,15,01,9.50
2009,06,25,15,02,9.70
2009,06,25,15,03,5.80
2009,06,25,15,04,11.30
2009,06,25,15,05,10.60
2009,06,25,15,06,4.10
2009,06,25,15,07,5.30
2009,06,25,15,08,2.50
2009,06,25,15,09,3.90
2009,06,25,15,10,4.30
2009,06,25,15,11,8.40
2009,06,25,15,12,3.80
2009,06,25,15,13,8.40
2009,06,25,15,14,17.20
2009,06,25,15,15,6.00
2009,06,25,15,16,15.90
2009,06,25,15,17,12.90
2009,06,25,15,18,9.00
2009,06,25,15,19,5.90
2009,06,25,15,20,9.50
2009,06,25,15,21,7.70
2009,06,25,15,22,8.60
2009,06,25,15,23,13.40
2009,06,25,15,24,6.50
2009,06,25,15,25,4.50
2009,06,25,15,26,3.60
2009,06,25,15,27,15.70
2009,06,25,15,28,8.30
2009,06,25,15,29,10.60
2009,06,25,15,30,8.00
2009,06,25,15,31,3.70
2009,06,25,15,32,13.80
2009,06,25,15,33,7.20
2009,06,25,15,34,9.70
2009,06,25,15,35,6.60
2009,06,25,15,36,10.80
2009,06,25,15,37,5.20
2009,06,25,15,38,7.50
2009,06,25,15,39,6.70
2009,06,25,15,40,6.90
2009,06,25,15,41,4.30
2009,06,25,15,42,9.30
2009,06,25,15,43,8.40
2009,06,25,15,44,6.70
2009,06,25,15,45,9.70
2009,06,25,15,46,17.40
2009,06,25,15,47,8.90
2009,06,25,15,48,4.40
2009,06,25,15,49,3.40
2009,06,25,15,50,8.50
2009,06,25,15,51,9.90
2009,06,25,15,52,12.90
2009,06,25,15,53,12.10
2009,06,25,15,54,8.00
2009,06,25,15,55,9.10
2009,06,25,15,56,11.70
2009,06,25,15,57,8.10
2009,06,25,15,58,11.80
2009,06,25,15,59,8.00
2009,06,25,16,00,4.70
2009,06,25,16,01,7.60
2009,06,25,16,02,6.70
2009,06,25,16,03,7.10
2009,06,25,16,04,4.30
2009,06,25,16,05,3.60
2009,06,25,16,06,9.20
2009,06,25,16,07,8.40
2009,06,25,16,08,10.80
2009,06,25,16,09,13.80
2009,06,25,16,10,15.40
2009,06,25,16,11,6.80
2009,06,25,16,12,10.70
2009,06,25,16,13,12.50
2009,06,25,16,14,15.30
2009,06,25,16,15,6.80
2009,06,25,16,16,5.50
2009,06,25,16,17,9.80
2009,06,25,16,18,5.10
2009,06,25,16,19,5.90
2009,06,25,16,20,9.50
2009,06,25,16,21,5.90
2009,06,25,16,22,5.50
2009,06,25,16,23,8.80
2009,06,25,16,24,9.60
2009,06,25,16,25,11.70
2009,06,25,16,26,8.20
2009,06,25,16,27,10.70
2009,06,25,16,28,3.90
2009,06,25,16,29,5.30
2009,06,25,16,30,6.30
2009,06,25,16,31,5.80
2009,06,25,16,32,6.00
2009,06,25,16,33,5.90
2009,06,25,16,34,11.60
2009,06,25,16,35,7.10
2009,06,25,16,36,3.80
2009,06,25,16,37,10.10
2009,06,25,16,38,11.00
2009,06,25,16,39,7.10
2009,06,25,16,40,9.00
2009,06,25,16,41,6.90
2009,06,25,16,42,6.20
2009,06,25,16,43,7.00
2009,06,25,16,44,12.80
2009,06,25,16,45,12.60
2009,06,25,16,46,3.50
2009,06,25,16,47,2.50
2009,06,25,16,48,3.40
2009,06,25,16,49,7.10
2009,06,25,16,50,6.10
2009,06,25,16,51,2.70
2009,06,25,16,52,5.80
2009,06,25,16,53,7.80
2009,06,25,16,54,3.00
2009,06,25,16,55,3.40
2009,06,25,16,56,7.20
2009,06,25,16,57,13.00
2009,06,25,16,58,9.30
2009,06,25,16,59,9.70
2009,06,25,17,00,10.00
2009,06,25,17,01,8.70
2009,06,25,17,02,9.90
2009,06,25,17,03,10.70
2009,06,25,17,04,10.10
2009,06,25,17,05,5.70
2009,06,25,17,06,8.90
2009,06,25,17,07,7.60
2009,06,25,17,08,7.80
2009,06,25,17,09,6.40
2009,06,25,17,10,4.60
2009,06,25,17,11,4.20
2009,06,25,17,12,2.30
2009,06,25,17,13,6.90
2009,06,25,17,14,13.90
2009,06,25,17,15,12.20
2009,06,25,17,16,8.50
2009,06,25,17,17,7.10
2009,06,25,17,18,12.40
2009,06,25,17,19,10.60
2009,06,25,17,20,12.60
2009,06,25,17,21,7.80
2009,06,25,17,22,11.00
2009,06,25,17,23,10.90
2009,06,25,17,24,5.60
2009,06,25,17,25,3.30
2009,06,25,17,26,2.80
2009,06,25,17,27,8.70
2009,06,25,17,28,11.90
2009,06,25,17,29,7.20
2009,06,25,17,30,15.40
2009,06,25,17,31,9.30
2009,06,25,17,32,4.50
2009,06,25,17,33,2.70
2009,06,25,17,34,2.70
2009,06,25,17,35,0.70
2009,06,25,17,36,8.00
2009,06,25,17,37,7.40
2009,06,25,17,38,6.90
2009,06,25,17,39,7.70
2009,06,25,17,40,11.30
2009,06,25,17,41,16.50
2009,06,25,17,42,5.40
2009,06,25,17,43,6.30
2009,06,25,17,44,9.30
2009,06,25,17,45,6.30
2009,06,25,17,46,2.20
2009,06,25,17,47,3.40
2009,06,25,17,48,6.30
2009,06,25,17,49,2.80
2009,06,25,17,50,4.00
2009,06,25,17,51,7.80
2009,06,25,17,52,8.80
2009,06,25,17,53,4.80
2009,06,25,17,54,6.70
2009,06,25,17,55,8.70
2009,06,25,17,56,8.80